Flight Track Log - Related Links

Times and Time Zones

All times are in EDT time to prevent confusion due to time zone crossing. See the UPS1338 flight status page for this flight to view local times or setup timezone preferences in your user account.

Time Position Orientation Groundspeed Altitude Reporting Facility
EDT Latitude Longitude Course Direction KTS MPH feet Rate Location/Type
Sat 05:25:11 AM 38.1286 -85.7066 159° South 210 242 2,800  Level FlightAware ADS-B
Sat 05:26:11 AM 38.0658 -85.6668 142° Southeast 274 315 5,600 3,205 Climbing FlightAware ADS-B
Sat 05:26:39 AM 38.0373 -85.6402 144° Southeast 279 321 7,500 3,545 Climbing FlightAware ADS-B
Sat 05:26:55 AM 38.0319 -85.6353 144° Southeast 285 328 8,200 3,188 Climbing FlightAware ADS-B
Sat 05:27:11 AM 38.0023 -85.6071 142° Southeast 299 344 9,200 3,290 Climbing FlightAware ADS-B
Sat 05:27:26 AM 37.9870 -85.5919 143° Southeast 309 356 9,900 2,133 Climbing FlightAware ADS-B
Sat 05:27:56 AM 37.9498 -85.5558 143° Southeast 342 394 10,800 2,000 Climbing FlightAware ADS-B
Sat 05:29:11 AM 37.8415 -85.4498 142° Southeast 421 484 13,400 2,418 Climbing FlightAware ADS-B
Sat 05:30:10 AM 37.7455 -85.3635 154° Southeast 438 504 16,200 2,769 Climbing FlightAware ADS-B
Sat 05:31:08 AM 37.6345 -85.3079 160° South 455 524 18,800 2,591 Climbing FlightAware ADS-B
Sat 05:31:38 AM 37.5750 -85.2793 159° South 463 533 20,000 2,095 Climbing FlightAware ADS-B
Sat 05:32:11 AM 37.5081 -85.2460 158° South 478 550 21,000 1,791 Climbing FlightAware ADS-B
Sat 05:32:45 AM 37.4409 -85.2125 158° South 491 565 22,000 2,000 Climbing FlightAware ADS-B
Sat 05:33:20 AM 37.4409 -85.2125 158° South 496 571 23,300 2,143 Climbing FlightAware ADS-B
Sat 05:34:09 AM 37.2601 -85.1230 159° South 506 582 25,000 1,851 Climbing FlightAware ADS-B
Sat 05:34:54 AM 37.1663 -85.0764 159° South 516 594 26,200 1,558 Climbing FlightAware ADS-B
Sat 05:35:26 AM 37.0857 -85.0367 159° South 520 598 27,000 1,796 Climbing FlightAware ADS-B
Sat 05:37:11 AM 36.8528 -84.9222 159° South 523 602 30,300 1,782 Climbing FlightAware ADS-B
Sat 05:38:11 AM 36.7193 -84.8573 159° South 525 604 31,900 905 Climbing FlightAware ADS-B
Sat 05:40:10 AM 36.4419 -84.7237 159° South 528 608 33,000 335 Climbing FlightAware ADS-B
Sat 05:41:28 AM 36.3062 -84.6580 159° South 524 603 33,000  Level FlightAware ADS-B
Sat 05:42:15 AM 36.1861 -84.6000 159° South 526 605 33,000  Level Indianapolis Center
Sat 05:42:48 AM 36.1031 -84.5708 164° South 527 606 33,000  Level Atlanta Center
Sat 05:43:48 AM 35.9511 -84.5108 162° South 527 606 33,000  Level Atlanta Center
Sat 05:44:48 AM 35.8114 -84.4586 163° South 527 606 33,000  Level Atlanta Center
Sat 05:45:48 AM 35.6697 -84.4044 163° South 527 606 33,000  Level Atlanta Center
Sat 05:46:48 AM 35.5322 -84.3525 163° South 522 601 33,000  Level Atlanta Center
Sat 05:47:48 AM 35.3925 -84.3011 163° South 522 601 33,000  Level Atlanta Center
Sat 05:48:48 AM 35.2569 -84.2497 163° South 516 594 33,000 250 Level Atlanta Center
Sat 05:49:48 AM 35.1236 -84.2014 163° South 511 588 33,500 700 Climbing Atlanta Center
Sat 05:50:48 AM 34.9858 -84.1503 163° South 511 588 34,400 750 Climbing Atlanta Center
Sat 05:51:48 AM 34.8481 -84.0969 162° South 511 588 35,000 300 Climbing Atlanta Center
Sat 05:52:48 AM 34.7147 -84.0464 163° South 511 588 35,000  Level Atlanta Center
Sat 05:53:48 AM 34.5978 -83.9983 161° South 500 575 35,000  Level Atlanta Center
Sat 05:54:48 AM 34.4642 -83.9506 164° South 495 570 35,000  Level Atlanta Center
Sat 05:55:48 AM 34.3306 -83.9006 163° South 495 570 35,000  Level Atlanta Center
Sat 05:56:48 AM 34.2011 -83.8531 163° South 495 570 35,000  Level Atlanta Center
Sat 05:57:48 AM 34.0675 -83.8031 163° South 495 570 35,000  Level Atlanta Center
Sat 05:58:48 AM 33.9339 -83.7558 164° South 495 570 35,000  Level Atlanta Center
Sat 05:59:48 AM 33.8022 -83.7089 163° South 495 570 35,000 50 Level Atlanta Center
Sat 06:00:48 AM 33.6706 -83.6619 163° South 495 570 35,100 450 Climbing Atlanta Center
Sat 06:01:48 AM 33.5389 -83.6125 163° South 495 570 35,900 450 Climbing Atlanta Center
Sat 06:02:48 AM 33.4072 -83.5661 164° South 495 570 36,000 50 Climbing Atlanta Center
Sat 06:03:48 AM 33.2733 -83.5169 163° South 500 575 36,000  Level Atlanta Center
Sat 06:04:48 AM 33.1375 -83.4708 164° South 500 575 36,000  Level Atlanta Center
Sat 06:05:48 AM 32.9933 -83.4197 163° South 495 570 36,000  Level Atlanta Center
Sat 06:06:48 AM 32.8594 -83.3711 163° South 495 570 36,000  Level Atlanta Center
Sat 06:07:48 AM 32.7256 -83.3228 163° South 495 570 36,000  Level Atlanta Center
Sat 06:08:48 AM 32.5894 -83.2747 163° South 495 570 36,000  Level Atlanta Center
Sat 06:09:48 AM 32.4619 -83.2289 163° South 490 564 36,000  Level Atlanta Center
Sat 06:11:03 AM 32.3103 -83.1753 163° South 502 578 36,000  Level Jacksonville Center
Sat 06:12:03 AM 32.1850 -83.1283 162° South 486 559 36,000  Level Jacksonville Center
Sat 06:13:03 AM 32.0558 -83.0861 165° South 486 559 36,000  Level Jacksonville Center
Sat 06:14:03 AM 31.9158 -83.0344 163° South 481 554 36,000  Level Jacksonville Center
Sat 06:15:03 AM 31.7886 -82.9903 164° South 481 554 36,000  Level Jacksonville Center
Sat 06:16:03 AM 31.6614 -82.9464 164° South 481 554 36,000  Level Jacksonville Center
Sat 06:17:03 AM 31.5339 -82.9022 164° South 481 554 36,000  Level Jacksonville Center
Sat 06:18:03 AM 31.4067 -82.8586 164° South 481 554 36,000  Level Jacksonville Center
Sat 06:19:03 AM 31.2833 -82.8172 164° South 469 540 36,000  Level Jacksonville Center
Sat 06:24:34 AM 30.5939 -82.5833 164° South 466 536 36,000  Level FlightAware ADS-B
Sat 06:25:16 AM 30.5053 -82.5540 164° South 466 536 36,000  Level FlightAware ADS-B
Sat 06:27:14 AM 30.2574 -82.5004 170° South 476 548 36,000  Level FlightAware ADS-B
Sat 06:28:18 AM 30.1127 -82.4697 170° South 483 556 36,000 -229 Level FlightAware ADS-B
Sat 06:28:59 AM 30.0217 -82.4505 170° South 477 549 35,600 -1,098 Descending FlightAware ADS-B
Sat 06:29:40 AM 29.9420 -82.4335 170° South 468 539 34,500 -1,926 Descending FlightAware ADS-B
Sat 06:30:20 AM 29.8531 -82.4144 170° South 477 549 33,000 -2,640 Descending FlightAware ADS-B
Sat 06:31:20 AM 29.7176 -82.3867 170° South 474 545 30,100 -3,000 Descending FlightAware ADS-B
Sat 06:32:18 AM 29.5932 -82.3611 171° South 468 539 27,100 -3,064 Descending FlightAware ADS-B
Sat 06:32:54 AM 29.5224 -82.3518 174° South 469 540 25,300 -2,471 Descending FlightAware ADS-B
Sat 06:33:43 AM 29.4097 -82.3385 174° South 455 524 23,600 -2,092 Descending FlightAware ADS-B
Sat 06:34:43 AM 29.2871 -82.3235 174° South 436 502 21,500 -2,156 Descending FlightAware ADS-B
Sat 06:35:51 AM 29.1530 -82.3074 174° South 424 488 19,000 -2,146 Descending FlightAware ADS-B
Sat 06:37:00 AM 29.0191 -82.2917 174° South 405 466 16,600 -2,094 Descending FlightAware ADS-B
Sat 06:38:20 AM 28.9016 -82.2777 174° South 390 449 13,800 -1,462 Descending FlightAware ADS-B
Sat 06:40:54 AM 28.6023 -82.2733 214° Southwest 359 413 10,900 -836 Descending FlightAware ADS-B
Sat 06:41:41 AM 28.5500 -82.3167 214° Southwest 353 406 11,000 -280 Climbing Tampa TRACON
Sat 06:42:41 AM 28.4667 -82.3833 215° Southwest 319 367 10,400 -600 Descending Tampa TRACON
Sat 06:43:41 AM 28.4000 -82.4333 213° Southwest 266 306 9,800 -950 Descending Tampa TRACON
Sat 06:44:41 AM 28.3500 -82.4667 210° Southwest 245 282 8,500 -1,200 Descending Tampa TRACON
Sat 06:45:41 AM 28.2833 -82.5167 213° Southwest 240 276 7,400 -1,200 Descending Tampa TRACON
Sat 06:46:41 AM 28.2333 -82.5500 210° Southwest 217 250 6,100 -1,400 Descending Tampa TRACON
Sat 06:47:41 AM 28.2000 -82.5833 221° Southwest 210 242 4,600 -1,450 Descending Tampa TRACON
Sat 06:48:41 AM 28.1500 -82.6333 221° Southwest 197 227 3,200 -900 Descending Tampa TRACON
Sat 06:49:41 AM 28.1000 -82.6500 196° South 162 186 2,800 -714 Descending Tampa TRACON
Sat 06:50:47 AM 28.0667 -82.6667 204° Southwest 159 183 1,700 -714 Descending Tampa TRACON
Sat 06:51:47 AM 28.0167 -82.6667 180° South 137 158 1,300 -350 Descending Tampa TRACON
Sat 06:52:47 AM 27.9833 -82.6833 204° Southwest 127 146 1,000 -368 Descending Tampa TRACON
Sat 06:53:41 AM 27.9667 -82.7000 221° Southwest 129 148 600 -444 Descending Tampa TRACON
Sat 06:56:00 AM 27.9100 -82.6875 206° Southwest  Level Estimated
Sat 07:03:00 AM 27.9100 -82.6875 North  Level Estimated

Login

Don't have an account? Register now (free) for customized features, flight alerts, and more!